This demonstration page uses our WeatherBlox Daily Observations layout. Learn more.

Left ArrowRight Arrow

44.8408, -93.29828

Hourly Observations for November 25, 2016

Temp ( °F °C ) Dew Point ( °F °C ) Humidity (%) Winds ( mph kmh ) Pressure ( in mb ) Visibility ( mi km ) Precip ( " mm )
12:33 am 00:33 Cloudy with Light Snow 34 1.1 31 -0.6 89 89 W 5 7 30.27 1025 3 5 0.00 0.03
12:53 am 00:53 Cloudy with Light Snow 33 0.6 31 -0.6 92 92 WSW 5 7 30.26 1025 3 5 0.00 0.03
1:53 am 01:53 Cloudy with Mist and Fog 34 1.1 32 0 92 92 WSW 5 7 30.26 1025 5 8 0.00 0.03
2:53 am 02:53 Cloudy with Mist and Fog 34 1.1 32 0 92 92 WSW 5 7 30.27 1025 6 10 0.00 0.00
3:53 am 03:53 Cloudy with Mist and Fog 34 1.1 32 0 92 92 W 5 7 30.27 1025 6 10 0.00 0.00
4:53 am 04:53 Cloudy 34 1.1 31 -0.6 89 89 WNW 12 19 30.28 1025 7 11 0.00 0.00
5:53 am 05:53 Cloudy 34 1.1 31 -0.6 89 89 W 9 15 30.29 1026 9 14 0.00 0.00
6:53 am 06:53 Cloudy 34 1.1 31 -0.6 89 89 W 8 13 30.31 1026 9 14 0.00 0.00
7:22 am 07:22 Cloudy 34 1 30 -1 87 87 WNW 7 11 30.30 1026 10 16 0.00 0.00
7:53 am 07:53 Cloudy 34 1.1 31 -0.6 89 89 WNW 6 9 30.31 1027 10 16 0.00 0.00
8:53 am 08:53 Cloudy 35 1.7 31 -0.6 85 85 W 7 11 30.33 1027 10 16 0.00 0.00
9:00 am 09:00 Cloudy 35 1.7 32 0 89 89 W 6 9 30.33 1027 10 16 0.00 0.00
9:12 am 09:12 Cloudy 36 2 30 -1 81 81 W 6 9 30.33 1027 10 16 0.00 0.00
9:30 am 09:30 Cloudy 35 1.7 31 -0.6 85 85 W 7 11 30.33 1027 10 16 0.00 0.00
9:51 am 09:51 Cloudy 36 2 30 -1 81 81 WSW 8 13 30.33 1027 10 16 0.00 0.00
9:53 am 09:53 Cloudy 35 1.7 31 -0.6 85 85 WSW 8 13 30.33 1027 10 16 0.00 0.00
10:53 am 10:53 Cloudy 36 2 30 -1 81 81 WSW 8 13 30.33 1027 10 16 0.00 0.00
11:53 am 11:53 Cloudy 35 1.7 31 -0.6 85 85 SW 8 13 30.32 1027 10 16 0.00 0.00
12:03 pm 12:03 Cloudy 36 2 30 -1 81 81 SW 8 13 30.33 1027 10 16 0.00 0.00
12:53 pm 12:53 Cloudy 35 1.7 29 -1.7 78 78 WSW 7 11 30.32 1027 10 16 0.00 0.00
1:53 pm 13:53 Cloudy 35 1.7 29 -1.7 78 78 SW 7 11 30.30 1026 10 16 0.00 0.00
2:53 pm 14:53 Cloudy 36 2.2 30 -1.1 79 79 SW 7 11 30.30 1026 10 16 0.00 0.00
3:53 pm 15:53 Cloudy 36 2.2 29 -1.7 76 76 SW 8 13 30.30 1026 10 16 0.00 0.00
4:53 pm 16:53 Mostly Cloudy 35 1.7 29 -1.7 78 78 SW 3 6 30.30 1026 10 16 0.00 0.00
5:00 pm 17:00 Mostly Cloudy 36 2 28 -2 75 75 SW 3 6 30.30 1026 10 16 0.00 0.00
5:27 pm 17:27 Mostly Cloudy 35 1.7 29 -1.7 78 78 Calm 30.30 1026 10 16 0.00 0.00
5:53 pm 17:53 Mostly Cloudy 35 1.7 30 -1.1 82 82 S 3 6 30.30 1026 10 16 0.00 0.00
6:53 pm 18:53 Partly Cloudy 33 0.6 28 -2.2 82 82 SE 5 7 30.30 1026 10 16 0.00 0.00
7:53 pm 19:53 Mostly Clear 33 0.6 29 -1.7 85 85 SE 5 7 30.29 1026 10 16 0.00 0.00
8:13 pm 20:13 Mostly Cloudy 33 0.6 30 -1.1 89 89 ESE 5 7 30.30 1026 10 16 0.00 0.00
8:53 pm 20:53 Cloudy 33 0.6 30 -1.1 89 89 SE 5 7 30.29 1026 10 16 0.00 0.00
9:53 pm 21:53 Cloudy 34 1.1 31 -0.6 89 89 SE 3 6 30.28 1026 10 16 0.00 0.00
10:10 pm 22:10 Partly Cloudy 34 1 30 -1 87 87 S 5 7 30.27 1025 10 16 0.00 0.00
10:53 pm 22:53 Mostly Clear 34 1 30 -1 87 87 S 6 9 30.27 1025 10 16 0.00 0.00
11:53 pm 23:53 Clear 33 0.6 29 -1.7 85 85 S 6 9 30.27 1025 10 16 0.00 0.00

Powered by AerisWeather